Weather in Tarnaveni

Romania     46°19′58″N   24°17′13″E
temp.,
°C
wind,
m/s
gust,
m/s
humid.,
%
clouds,
%
prec.,
mm/h
press.,
hPa
HPBL,
m
21 april, wed
wed2100:00+7sw118893 0.4 101415
03:00+6sw129078 0.8 101545
06:00+3sw119451 0.0 101611
09:00+7sw128247 0.0 1017293
12:00+12wsw336558 0.9 10161003
15:00+13wsw346095 3.2 10161232
18:00+13wsw335951 1.0 10151263
21:00+8wsw238457 1.6 101742
22 april, thu
thu2200:00+6sw22852 0.2 101911
03:00+5ssw21895 0.2 101911
06:00+4s11905 0.0 101910
09:00+8s12745 0.0 1020239
12:00+14wsw33543 0.0 10181250
15:00+16wsw464598 0.0 10172140
18:00+16w5653100 0.0 10161487
21:00+9sw3381100 0.5 101749
23 april, fri
fri2300:00+8sw32850 0.1 101724
03:00+6sw22885 0.1 101713
06:00+6wsw1187100 0.0 101812
09:00+7wsw2490100 1.1 1020403
12:00+8n338098 0.4 1021531
15:00+9nne437281 0.5 1021670
18:00+12w684699 0.4 10201991
21:00+5w34655 0.4 102358
24 april, sat
sat2400:00+3wsw22720 0.0 102413
03:00+2wnw12725 0.0 102415
06:00+1e00813 0.0 102410
09:00+5ene22650 0.0 1025375
12:00+10n12479 0.0 10241541
15:00+11nnw234271 0.0 10221879
18:00+11n224623 0.0 10201536
21:00+6nne33705 0.0 102149
25 april, sun
sun2500:00+3nne117568 0.0 102210
03:00+2sw00775 0.0 102110
06:00+1sw11835 0.0 102110
09:00+6sw23685 0.0 1020390
12:00+11wsw345236 0.0 10181560
15:00+8nnw667493 0.8 1018939
18:00+7nnw7862100 0.4 10191141
21:00+4nw4105699 0.4 1021341